Location: Batang Balui
(2.7000°N, 113.7833°E)
Time: 23:38:27
(UTC+00:00)

ARGOS - Pass Details

Date: 03 December 2021
Orbit: 820 x 835 km, 98.4° (Epoch: 27 January)

Event Time Altitude Azimuth Distance (km) Brightness Sun altitude
Rises 10:37:40 0° 150° (SSE) 3,377 6.3 -6.3°
Reaches altitude 10° 10:40:13 10° 141° (SE) 2,442 5.4 -6.9°
Maximum altitude 10:45:06 35° 77° (ENE) 1,326 3.7 -8.0°
Drops below altitude 10° 10:49:57 10° 13° (NNE) 2,434 5.3 -9.2°
Sets 10:52:29 0° 4° (N) 3,364 6.1 -9.8°
